Temperature
26 27 27 27 28 28 28 27 27 26 26 26 25 25 24 23 23 22 22 21 20 19 18 17 17 17 17 17 17 17 16 16 16 16 16 15 15 15 15 15 15 15 15 14
27 27 28 28 27 27 27 27 27 26 25 25 25 24 24 23 23 22 21 21 20 19 18 17 17 17 17 16 16 16 16 16 16 16 15 15 15 15 15 14 14 14 14 14
27 28 27 27 27 27 27 27 27 26 25 25 25 24 24 23 22 22 21 21 20 19 18 17 17 16 16 16 16 16 16 15 15 15 15 15 15 15 14 14 14 14 14 14
27 27 27 27 27 27 27 27 26 26 25 26 25 25 25 24 23 22 22 21 20 19 18 18 17 16 16 16 16 15 15 15 15 15 15 14 14 14 14 14 14 13 13 13
27 27 27 27 27 26 26 26 26 26 26 26 25 25 25 24 23 23 22 21 20 19 18 17 17 16 16 15 15 15 15 15 15 15 14 14 14 14 14 14 13 13 13 13
27 27 27 27 26 26 26 26 26 26 26 25 25 25 25 24 23 23 22 21 19 19 18 17 17 16 16 15 15 15 15 15 14 14 14 14 14 14 13 13 13 13 13 13
27 27 27 26 26 26 26 26 26 26 26 25 25 25 24 23 23 22 21 20 19 18 18 17 16 16 15 15 15 14 14 14 14 14 14 14 13 13 13 13 13 13 13 13
26 26 26 26 26 26 26 26 25 25 25 26 24 24 24 23 22 21 20 20 19 18 17 17 16 16 15 15 14 14 14 14 14 14 14 13 13 13 13 13 13 13 13 13
26 26 26 26 26 26 26 26 26 26 25 25 25 24 23 23 22 21 20 19 19 18 17 17 16 15 15 15 14 14 14 13 13 13 13 13 13 13 13 13 13 13 13 12
26 25 26 26 26 26 26 26 25 25 24 24 25 24 24 22 22 21 20 19 19 18 17 16 16 15 15 14 14 14 14 14 13 13 13 13 13 13 13 12 12 12 12 12
26 25 25 26 25 26 25 25 25 25 25 24 24 24 24 22 22 21 21 19 18 18 17 16 16 15 15 14 14 14 14 14 13 13 13 13 13 13 12 12 12 12 12 12
25 25 25 25 25 25 25 25 25 24 24 24 24 24 22 22 21 21 20 19 18 17 17 16 16 15 15 14 14 14 14 13 13 13 13 13 13 12 12 12 12 12 12 12
24 24 24 24 24 24 24 24 25 25 24 24 24 23 22 21 21 20 19 18 17 17 16 16 15 15 15 14 14 14 14 13 13 13 13 13 12 12 12 12 12 12 12 11
23 24 24 24 25 25 24 24 24 24 24 24 24 23 22 21 21 20 19 18 18 17 16 16 15 15 14 14 14 14 13 13 13 13 13 13 12 12 12 12 12 12 12 11
23 24 24 24 24 24 24 24 24 23 23 23 23 23 22 21 20 20 19 18 17 17 16 15 15 15 14 14 14 14 13 13 13 13 13 13 12 12 12 12 12 12 12 11
23 23 23 23 24 23 23 23 23 23 23 23 23 22 22 20 20 19 18 18 17 17 16 15 15 14 14 14 14 13 13 13 13 13 13 13 12 12 12 12 12 12 12 11
23 22 23 24 24 23 23 23 23 23 23 23 23 22 21 20 20 19 18 17 17 16 16 15 15 14 14 14 14 13 13 13 13 13 13 13 13 12 12 12 12 12 11 11
22 22 23 23 23 22 23 23 23 23 22 22 22 21 21 20 19 18 17 17 16 16 15 15 14 14 14 14 14 13 13 13 13 13 13 13 13 12 12 12 12 11 11 11
21 21 22 23 23 23 22 22 22 22 22 21 21 21 20 19 18 18 16 16 15 15 15 14 14 14 14 14 13 13 13 13 13 13 13 13 13 12 12 12 12 11 11 11
21 21 22 22 22 22 22 22 21 21 21 20 20 19 19 18 20 19 16 15 15 14 14 14 14 14 14 14 13 13 13 13 13 13 13 13 12 12 12 12 12 11 11 11
21 21 21 22 22 22 21 21 21 21 20 19 18 18 18 19 19 17 16 15 14 14 14 14 14 14 14 13 13 13 13 13 13 13 13 12 12 12 12 12 11 11 11 11
21 22 21 21 21 21 20 20 20 19 18 18 18 17 17 17 16 16 15 15 14 14 14 14 14 13 13 13 13 13 13 12 12 12 12 12 12 12 12 11 11 11 11 11
21 21 21 21 21 19 18 18 18 17 17 17 17 17 16 16 16 15 15 14 14 14 14 14 13 13 13 13 13 13 12 12 12 12 12 12 12 12 12 11 11 11 11 11
20 19 20 20 20 19 18 17 16 16 16 16 16 16 16 16 15 15 15 14 14 14 14 13 13 13 13 13 13 12 12 12 12 12 12 12 12 12 11 11 11 11 11 11
19 18 19 19 19 18 17 16 16 16 16 16 15 15 15 15 15 15 14 14 14 14 13 13 13 13 13 13 13 12 12 12 12 12 12 12 12 12 11 11 11 11 11 11
19 18 19 19 18 18 17 16 16 16 15 15 15 15 15 15 15 14 14 14 13 13 13 13 13 13 13 13 13 12 12 12 12 12 12 12 12 12 12 12 11 11 11 11
Wind_Speed
6 8 8 6 6 6 5 6 4 2 1 3 4 3 2 2 2 1 1 1 2 2 3 3 3 3 3 3 2 2 1 1 1 2 2 3 3 3 3 3 3 3 4 5
7 7 5 4 6 7 7 7 5 3 3 3 3 3 2 3 2 1 1 1 1 2 2 3 4 4 3 3 2 2 1 1 2 2 2 3 3 3 3 3 3 4 4 5
8 2 2 5 6 7 7 7 5 4 4 5 5 5 5 4 3 1 0 1 1 2 2 2 3 4 3 3 3 3 2 2 2 2 2 2 3 3 3 3 3 4 4 5
5 4 5 6 6 6 6 4 5 7 7 5 6 5 4 5 3 1 1 1 2 2 2 3 3 4 4 3 3 2 2 2 2 3 3 4 4 4 4 3 3 3 4 4
4 4 5 5 3 4 3 3 6 8 8 7 6 6 3 4 2 1 1 2 2 2 2 3 4 4 4 3 3 2 2 2 2 3 3 4 4 3 3 3 3 3 3 3
4 3 3 3 3 3 3 4 6 8 8 7 4 5 2 1 1 2 1 2 2 2 2 2 3 4 4 4 3 3 2 2 3 3 3 3 3 3 3 3 3 3 2 2
6 5 4 3 5 6 6 6 5 6 6 3 2 5 0 2 1 2 2 2 2 2 2 2 3 4 4 4 4 3 2 2 2 3 3 2 2 2 2 3 2 3 2 2
5 5 4 3 4 4 6 7 6 5 4 2 4 3 2 4 2 2 2 2 2 2 2 3 3 4 4 4 4 3 2 3 3 3 3 2 2 2 2 2 3 2 2 2
3 2 4 2 2 4 4 5 5 6 6 6 3 2 3 3 0 1 2 2 2 2 2 3 3 4 4 4 3 3 3 2 3 3 2 2 1 2 2 2 2 2 2 2
3 3 3 3 5 2 3 3 4 5 5 5 4 4 1 1 1 1 2 2 2 2 2 3 3 3 3 3 3 3 3 2 2 2 2 2 1 1 2 2 2 2 2 2
4 4 4 5 4 3 4 4 4 5 5 6 5 1 4 2 1 2 2 2 2 2 2 2 2 3 3 3 3 3 3 2 2 2 2 2 1 1 2 2 2 2 1 1
3 4 4 4 2 1 4 4 5 6 5 6 6 1 5 3 2 2 2 2 2 1 2 2 2 3 3 3 3 3 4 3 3 3 2 2 2 2 2 2 2 2 2 2
3 4 5 6 6 5 4 4 5 6 5 6 6 1 5 1 1 2 2 2 1 1 1 2 2 2 3 3 3 3 3 3 3 3 2 2 2 2 2 2 2 2 2 1
3 4 6 6 3 2 4 5 6 7 7 6 6 5 2 1 2 3 2 2 1 1 1 2 2 2 3 3 3 3 3 3 3 3 2 2 3 3 2 2 1 2 2 2
3 5 5 5 4 5 6 5 5 7 8 8 7 7 4 2 3 3 2 1 1 1 1 2 2 3 3 3 3 3 2 3 3 3 3 3 3 3 2 2 2 2 2 2
2 3 5 6 5 5 7 7 7 8 8 8 7 5 1 1 1 2 2 2 2 1 1 2 2 2 3 3 3 2 2 2 2 3 3 3 3 3 3 2 2 2 2 3
3 3 5 5 4 7 8 6 7 7 5 6 6 3 1 2 2 2 1 2 2 2 1 2 2 2 3 3 3 2 2 2 2 3 3 3 3 3 3 3 3 3 3 3
4 5 5 5 6 8 1 0 3 5 4 4 3 1 2 2 1 1 1 1 1 2 1 1 2 2 3 3 2 2 2 2 2 3 4 4 3 3 4 4 4 3 3 3
6 5 5 6 7 7 3 2 3 5 4 1 2 1 1 0 2 3 2 1 1 1 1 1 2 2 2 2 2 2 2 3 3 4 4 4 4 4 4 4 4 4 3 4
6 7 7 6 7 6 0 1 1 4 5 2 1 1 1 2 4 1 2 1 1 1 1 1 2 2 2 2 2 3 3 3 4 4 4 4 4 4 4 4 4 4 4 4
6 6 8 9 8 3 3 1 3 5 1 1 2 2 3 3 3 2 2 1 0 0 1 1 1 2 2 2 2 2 3 4 4 4 4 4 4 4 4 4 3 4 4 4
5 5 6 6 8 3 4 3 1 2 2 1 1 2 2 1 1 2 2 2 1 0 1 1 1 1 1 2 2 2 3 4 4 4 4 4 4 4 4 4 4 4 4 5
4 3 3 3 1 4 3 2 1 2 1 0 0 1 1 1 2 2 2 1 1 1 1 1 2 1 1 2 2 3 3 4 3 4 4 4 5 4 4 4 5 4 4 4
3 1 3 3 1 0 2 1 1 1 0 1 1 0 1 2 2 2 1 1 1 1 1 1 2 2 2 2 3 3 3 3 3 4 4 4 4 4 4 4 4 5 5 5
2 3 4 5 3 1 3 1 1 0 0 1 1 0 1 2 2 2 1 1 1 1 2 2 2 3 2 2 3 3 3 3 4 4 4 5 4 4 4 4 4 5 5 5
5 5 5 4 2 3 3 2 2 2 1 1 1 0 1 2 2 2 1 1 1 2 2 3 4 4 3 3 4 4 4 4 4 4 4 4 4 4 4 4 3 2 3 2
Wind_Direction
203 224 228 231 250 279 259 253 241 219 192 221 207 194 162 168 187 158 104 86 56 38 23 7 356 351 340 323 311 301 275 220 232 238 248 250 252 254 255 254 245 247 255 255
213 226 236 238 237 243 244 242 227 190 175 227 206 216 189 170 164 112 79 67 38 28 24 8 354 352 350 338 324 305 299 247 241 239 252 257 272 268 263 262 248 240 238 247
232 230 209 225 223 231 238 247 235 217 198 212 219 214 185 168 163 146 345 9 41 18 360 348 341 340 340 339 334 320 310 290 265 248 244 255 258 260 261 259 253 247 240 243
232 226 223 229 228 244 247 246 237 216 221 228 232 260 180 180 177 203 304 334 1 355 344 333 335 342 343 336 335 327 320 309 286 267 256 259 261 267 272 269 263 256 249 252
214 206 221 232 246 252 264 226 229 231 239 248 226 257 195 171 220 261 325 337 340 338 336 335 344 346 348 344 348 348 344 326 303 280 266 259 269 279 278 275 263 264 257 251
220 207 239 242 224 209 179 201 213 225 234 242 236 255 239 165 310 330 350 359 349 344 337 345 355 355 353 351 353 350 356 337 313 289 286 280 285 291 294 290 277 266 262 256
200 188 182 199 204 191 216 237 235 225 227 235 166 248 302 81 35 347 346 353 358 358 357 352 354 352 351 355 357 360 4 338 322 314 308 296 289 282 286 291 280 278 274 267
221 188 169 195 236 234 224 254 277 281 280 262 202 241 109 112 77 27 7 3 12 8 9 359 0 350 348 356 357 2 4 345 342 340 331 319 295 292 302 309 299 284 289 291
245 188 137 159 224 252 230 246 289 278 272 262 218 197 173 158 120 6 7 357 354 358 1 2 8 356 350 357 2 4 2 346 344 344 336 329 336 324 323 312 296 306 314 296
263 235 182 174 193 180 283 261 253 266 281 275 246 236 226 185 310 335 338 330 334 349 357 9 14 3 1 9 16 10 1 0 355 341 342 6 360 346 339 333 348 339 321 305
248 239 200 197 225 230 208 223 255 267 281 283 281 318 63 81 14 338 340 322 325 348 2 15 21 24 27 26 29 24 15 17 11 3 7 13 7 359 350 353 357 353 337 316
234 251 233 208 157 286 254 256 246 260 257 262 281 326 100 90 39 349 348 343 345 355 9 22 30 35 32 27 25 25 17 17 15 14 14 14 12 7 351 352 349 349 334 303
200 225 231 204 190 197 222 237 248 256 263 262 271 255 122 105 3 342 331 340 351 2 16 23 25 28 26 21 18 17 11 9 6 7 13 8 359 356 351 351 355 355 343 312
246 240 259 278 299 246 231 226 233 247 258 265 271 285 271 293 312 314 312 317 343 19 26 11 9 12 13 7 7 5 7 4 3 355 356 1 355 351 351 350 343 329 322 307
247 242 250 264 267 262 258 253 237 243 265 276 288 292 298 303 300 295 298 305 338 5 10 2 3 1 356 356 354 347 351 351 348 336 339 351 345 349 356 350 344 331 319 312
236 253 250 245 235 247 252 251 244 246 255 266 276 287 345 323 263 278 284 295 303 321 335 338 348 351 344 343 338 332 326 330 328 328 336 341 343 352 354 353 347 336 325 314
209 229 252 252 236 249 248 247 240 241 250 259 274 293 173 256 270 281 284 290 298 311 332 333 336 333 325 323 322 322 316 326 328 327 329 338 347 351 346 338 341 338 326 316
225 240 251 260 242 248 244 91 245 246 250 269 282 249 229 261 262 228 256 315 321 328 330 318 315 318 316 317 325 327 317 326 327 327 330 331 334 338 335 333 338 334 323 318
220 233 251 254 253 252 196 198 225 242 245 255 254 231 253 225 215 178 113 25 360 351 341 315 305 309 318 336 333 322 315 318 328 329 329 332 332 329 321 324 332 328 321 314
197 226 242 247 259 260 185 130 228 242 219 106 176 218 211 223 247 137 126 155 36 28 16 343 318 324 342 342 338 322 317 321 323 323 322 324 325 320 310 313 319 324 312 308
199 214 232 244 250 249 68 116 212 238 7 95 216 228 220 243 333 59 143 167 131 28 359 334 317 339 348 348 339 321 320 326 325 322 320 319 320 314 308 307 304 308 302 307
234 231 227 239 244 231 95 143 220 9 52 138 208 235 249 263 66 125 153 169 193 280 339 324 310 339 354 355 335 324 326 327 327 328 325 324 322 315 315 307 296 294 297 297
239 282 278 270 310 79 127 123 55 43 87 51 320 255 227 208 165 156 158 175 207 246 299 302 299 313 344 342 330 323 326 325 324 324 322 320 322 319 314 308 303 297 291 299
204 267 258 251 212 132 159 108 72 5 16 48 64 202 195 193 174 164 170 200 239 278 288 293 296 307 323 327 326 319 319 319 314 312 312 311 315 317 318 313 311 316 318 314
246 207 236 247 270 248 199 231 258 331 35 75 48 85 176 189 187 183 201 264 286 289 295 293 297 297 305 312 313 317 317 307 305 307 309 310 313 310 305 306 321 322 329 328
233 235 242 253 233 259 255 231 206 196 184 173 177 160 186 201 200 207 225 275 302 301 299 293 295 293 295 301 303 305 300 293 294 297 302 305 308 308 300 301 303 319 296 328
Height
1499 1496 1494 1492 1490 1490 1490 1492 1494 1495 1496 1497 1499 1501 1504 1507 1507 1508 1509 1511 1511 1512 1512 1510 1509 1507 1506 1505 1504 1503 1503 1502 1502 1502 1503 1503 1503 1503 1503 1503 1502 1502 1501 1501
1495 1493 1490 1490 1492 1492 1491 1492 1494 1495 1497 1498 1499 1501 1502 1505 1506 1508 1509 1510 1510 1511 1510 1509 1508 1506 1505 1504 1503 1502 1501 1500 1501 1501 1501 1501 1501 1501 1500 1500 1499 1499 1498 1499
1490 1489 1490 1491 1491 1492 1490 1490 1491 1495 1497 1497 1498 1500 1500 1503 1506 1508 1508 1509 1509 1509 1509 1508 1507 1505 1504 1503 1501 1500 1499 1499 1499 1499 1499 1498 1498 1498 1498 1497 1496 1495 1495 1495
1487 1488 1489 1489 1489 1489 1491 1487 1490 1493 1496 1494 1496 1499 1496 1498 1502 1505 1506 1507 1507 1508 1508 1507 1506 1505 1503 1502 1500 1499 1497 1497 1497 1496 1496 1496 1495 1495 1494 1494 1493 1492 1492 1492
1487 1487 1488 1489 1489 1489 1489 1488 1489 1491 1491 1493 1493 1497 1493 1496 1500 1502 1504 1505 1506 1507 1507 1506 1505 1504 1502 1501 1499 1497 1496 1495 1495 1494 1493 1493 1493 1492 1492 1491 1490 1489 1489 1489
1485 1487 1487 1488 1488 1489 1489 1490 1490 1489 1487 1497 1492 1497 1495 1494 1499 1500 1503 1505 1506 1506 1506 1505 1504 1503 1501 1499 1498 1496 1494 1493 1492 1492 1491 1490 1490 1490 1489 1489 1488 1487 1487 1486
1486 1485 1487 1488 1488 1489 1489 1491 1494 1494 1493 1493 1492 1495 1496 1496 1499 1501 1502 1504 1505 1505 1504 1504 1503 1501 1500 1498 1496 1494 1493 1492 1491 1490 1489 1488 1488 1487 1487 1486 1486 1485 1484 1484
1486 1488 1485 1486 1487 1487 1487 1488 1496 1501 1496 1490 1492 1494 1493 1497 1500 1502 1503 1503 1503 1503 1503 1503 1502 1500 1499 1497 1495 1494 1492 1491 1490 1489 1487 1487 1486 1486 1485 1484 1484 1483 1482 1482
1483 1486 1485 1486 1486 1485 1486 1485 1483 1488 1489 1492 1488 1491 1493 1496 1499 1500 1501 1502 1502 1503 1502 1502 1501 1499 1498 1496 1495 1493 1492 1490 1489 1488 1487 1485 1485 1484 1484 1483 1482 1481 1480 1479
1482 1488 1484 1485 1485 1486 1484 1484 1487 1488 1498 1497 1491 1490 1490 1494 1496 1498 1500 1501 1501 1502 1502 1501 1500 1499 1497 1496 1494 1493 1491 1489 1488 1487 1486 1485 1484 1483 1483 1482 1480 1479 1478 1477
1482 1487 1486 1485 1486 1484 1487 1487 1487 1485 1488 1496 1497 1494 1488 1493 1496 1497 1498 1500 1501 1501 1501 1500 1499 1498 1497 1495 1494 1492 1491 1490 1489 1487 1486 1484 1484 1483 1482 1481 1479 1478 1477 1476
1484 1483 1485 1484 1484 1484 1484 1484 1486 1493 1493 1491 1492 1495 1491 1494 1497 1498 1499 1500 1500 1500 1500 1499 1498 1498 1497 1495 1494 1493 1491 1490 1489 1487 1486 1485 1484 1483 1482 1480 1479 1477 1476 1475
1485 1488 1492 1489 1490 1487 1486 1485 1485 1485 1488 1490 1494 1495 1493 1495 1496 1498 1499 1499 1500 1500 1499 1499 1498 1497 1496 1495 1494 1492 1491 1490 1489 1487 1486 1485 1484 1482 1481 1480 1478 1477 1476 1474
1486 1485 1487 1490 1484 1481 1485 1485 1485 1486 1487 1488 1488 1488 1489 1492 1495 1497 1498 1499 1499 1499 1498 1498 1497 1497 1496 1495 1493 1492 1491 1490 1489 1487 1486 1485 1483 1482 1481 1479 1478 1476 1475 1473
1486 1484 1483 1482 1481 1482 1483 1484 1485 1487 1485 1487 1485 1485 1487 1491 1494 1496 1497 1498 1498 1498 1498 1497 1497 1496 1495 1494 1493 1492 1491 1490 1489 1488 1486 1485 1484 1482 1480 1479 1477 1476 1474 1473
1486 1485 1483 1484 1482 1482 1484 1483 1484 1485 1485 1484 1484 1486 1488 1492 1494 1495 1496 1496 1496 1497 1497 1496 1496 1495 1494 1493 1492 1491 1490 1489 1488 1487 1486 1485 1483 1482 1480 1479 1477 1475 1473 1472
1483 1486 1486 1483 1481 1483 1485 1481 1481 1482 1481 1483 1484 1485 1488 1491 1492 1494 1495 1495 1495 1496 1496 1495 1495 1494 1493 1493 1492 1491 1490 1489 1488 1487 1486 1484 1483 1481 1480 1478 1477 1475 1473 1471
1485 1485 1483 1481 1486 1493 1482 1478 1479 1481 1482 1482 1483 1486 1488 1490 1492 1494 1495 1495 1495 1495 1495 1495 1494 1493 1493 1492 1491 1490 1490 1489 1488 1486 1485 1484 1482 1481 1479 1478 1476 1474 1472 1470
1485 1485 1482 1481 1482 1480 1479 1479 1480 1482 1482 1483 1485 1487 1489 1491 1491 1492 1494 1495 1495 1495 1494 1494 1493 1493 1492 1491 1490 1490 1489 1488 1487 1486 1484 1483 1481 1480 1478 1477 1475 1473 1471 1468
1483 1483 1482 1481 1485 1485 1479 1479 1481 1483 1483 1485 1487 1488 1489 1490 1486 1489 1493 1494 1494 1494 1493 1493 1492 1492 1491 1490 1489 1489 1488 1487 1486 1485 1483 1482 1480 1479 1477 1475 1474 1472 1470 1468
1480 1481 1481 1480 1482 1476 1479 1480 1481 1485 1485 1487 1488 1489 1489 1489 1489 1492 1492 1493 1493 1493 1493 1492 1491 1491 1490 1489 1488 1487 1486 1485 1484 1483 1482 1480 1478 1477 1475 1474 1472 1470 1469 1466
1476 1475 1478 1477 1480 1481 1481 1481 1483 1485 1486 1487 1488 1489 1490 1490 1491 1491 1492 1493 1493 1493 1492 1491 1491 1490 1489 1488 1487 1486 1485 1484 1483 1482 1480 1479 1477 1476 1474 1472 1471 1469 1467 1465
1475 1476 1473 1476 1479 1481 1483 1484 1486 1487 1487 1487 1488 1488 1489 1490 1490 1491 1491 1492 1492 1492 1491 1490 1490 1489 1489 1488 1486 1485 1484 1483 1482 1481 1479 1478 1476 1474 1472 1471 1469 1468 1466 1464
1476 1480 1478 1478 1477 1481 1483 1485 1486 1487 1487 1487 1488 1488 1489 1489 1490 1490 1491 1491 1491 1491 1490 1489 1489 1488 1487 1486 1485 1485 1483 1482 1481 1479 1478 1476 1475 1473 1471 1469 1468 1467 1465 1463
1476 1479 1478 1479 1479 1481 1482 1484 1485 1486 1486 1487 1487 1488 1488 1489 1489 1490 1490 1490 1490 1489 1489 1488 1488 1487 1486 1485 1484 1483 1482 1481 1479 1478 1476 1475 1473 1471 1469 1468 1466 1465 1463 1461
1477 1478 1478 1476 1479 1481 1481 1483 1484 1485 1485 1486 1486 1487 1488 1488 1489 1489 1489 1489 1488 1488 1488 1487 1486 1485 1485 1483 1482 1481 1480 1479 1478 1476 1475 1474 1472 1470 1468 1467 1465 1463 1461 1459